Fayetteville, NC

2:59 PM EDT on August 21, 2017 (GMT -0400)
Fayetteville Regional-Grannis

Weather History for KFAY - August, 2014

Change the Weather History Date:

Friday, August 29, 2014

  Actual Average Record
Temperature  
Mean Temperature 82 °F 78 °F  
Max Temperature 93 °F 88 °F 100 °F (1932)
Min Temperature 70 °F 68 °F 55 °F (1942)
Degree Days  
Heating Degree Days 0 0  
Month to date heating degree days 0 0  
Since 1 June heating degree days 0 0  
Since 1 July heating degree days 0 0  
Cooling Degree Days 17 13  
Month to date cooling degree days 399 427  
Year to date cooling degree days 1706 1614  
Since 1 June cooling degree days 1340 1330  
Growing Degree Days 31 (Base 50)    
Moisture  
Dew Point 69 °F    
Average Humidity 67    
Maximum Humidity 90    
Minimum Humidity 44    
Precipitation  
Precipitation 0.00 in 0.15 in 3.20 in (1949)
Month to date precipitation 3.92 5.21  
Year to date precipitation 26.92 31.15  
Sea Level Pressure  
Sea Level Pressure 30.06 in    
Wind  
Wind Speed 5 mph (ENE)    
Max Wind Speed 14 mph    
Max Gust Speed 16 mph    
Visibility 10 miles    
Events      
T = Trace of Precipitation, MM = Missing Value Source: NWS Daily Summary

Daily Weather History Graph

Daily Weather History Graph

Search for Another Location

Airport or City:

Trip Planner

Search our weather history database for the weather conditions in past years. The results will help you decide how hot, cold, wet, or windy it might be!

Date:

Astronomy

Aug. 29, 2014 Rise Set
Actual Time 6:46 AM EDT 7:46 PM EDT
Civil Twilight 6:20 AM EDT 8:12 PM EDT
Nautical Twilight 5:49 AM EDT 8:42 PM EDT
Astronomical Twilight 5:17 AM EDT 9:14 PM EDT
Moon 10:23 AM EDT (8/29) 9:54 PM EDT (8/29)
Length of Visible Light 13h 52m
Length of Day
13h 00m
Waxing Crescent, 15% of the Moon is Illuminated
Aug 29
Waxing Crescent
Sep 2
First Quarter
Sep 8
Full
Sep 15
Last Quarter
Sep 24
New

Hourly Weather History & Observations

Time (EDT) Temp. Heat Index Dew Point Humidity Pressure Visibility Wind Dir Wind Speed Gust Speed Precip Events Conditions
12:53 AM 75.9 °F - 68.0 °F 76% 30.01 in 10.0 mi South 4.6 mph - N/A   Clear
1:53 AM 73.9 °F - 68.0 °F 82% 30.01 in 10.0 mi SSW 4.6 mph - N/A   Clear
2:53 AM 73.0 °F - 68.0 °F 84% 30.01 in 10.0 mi SW 5.8 mph - N/A   Clear
3:53 AM 73.0 °F - 66.9 °F 81% 30.00 in 10.0 mi SSW 4.6 mph - N/A   Clear
4:53 AM 72.0 °F - 66.9 °F 84% 30.01 in 10.0 mi SSW 5.8 mph - N/A   Clear
5:53 AM 71.1 °F - 66.9 °F 87% 30.01 in 10.0 mi SW 4.6 mph - N/A   Clear
6:53 AM 71.1 °F - 66.0 °F 84% 30.05 in 10.0 mi Calm Calm - N/A   Partly Cloudy
7:53 AM 72.0 °F - 68.0 °F 87% 30.07 in 10.0 mi Calm Calm - N/A   Scattered Clouds
8:53 AM 78.1 °F - 64.9 °F 64% 30.08 in 10.0 mi West 4.6 mph - N/A   Clear
9:53 AM 81.0 °F 82.5 °F 64.0 °F 56% 30.08 in 10.0 mi NW 3.5 mph - N/A   Clear
11:53 AM 87.1 °F 89.9 °F 66.9 °F 51% 30.09 in 10.0 mi North 4.6 mph - N/A   Clear
12:53 PM 89.1 °F 93.7 °F 69.1 °F 52% 30.08 in 10.0 mi NE 5.8 mph - N/A   Clear
1:53 PM 91.0 °F 95.2 °F 68.0 °F 47% 30.07 in 10.0 mi Variable 3.5 mph - N/A   Clear
2:53 PM 91.9 °F 94.5 °F 66.0 °F 42% 30.06 in 10.0 mi ENE 5.8 mph - N/A   Mostly Cloudy
4:53 PM 91.9 °F 99.5 °F 72.0 °F 52% 30.04 in 10.0 mi NE 9.2 mph - N/A   Clear
5:53 PM 89.1 °F 98.0 °F 73.9 °F 61% 30.05 in 10.0 mi ENE 9.2 mph - N/A   Clear
6:53 PM 86.0 °F 93.8 °F 73.9 °F 67% 30.06 in 10.0 mi NE 6.9 mph - N/A   Clear
7:53 PM 82.9 °F 89.4 °F 73.9 °F 74% 30.07 in 10.0 mi NE 4.6 mph - N/A   Partly Cloudy
8:53 PM 81.0 °F 86.2 °F 73.9 °F 79% 30.09 in 10.0 mi NE 5.8 mph - N/A   Clear
9:53 PM 80.1 °F 85.1 °F 75.0 °F 85% 30.12 in 10.0 mi East 8.1 mph - N/A   Scattered Clouds
11:53 PM 78.1 °F - 70.0 °F 76% 30.14 in 10.0 mi Calm Calm - N/A   Partly Cloudy